period_start,C,m1,H,J0,J1,J2,J3,J4,J5,JA,JB,JC,JD,JJ,JK,JN,#
2014-11-12 00:00:14,0.04,1.40,0.00,20.68,24.95,27.92,4.88,27.23,1024.43,2040.97,2829.94,2988.00,3169.09,350.34,353.55,20.64,0000 0000 0000 0000 000000
2014-11-12 00:05:15,0.03,1.41,0.00,20.67,24.95,27.88,4.94,27.31,1024.43,2040.97,2829.10,2987.91,3168.96,350.15,353.45,20.67,0000 0000 0000 0000 000000
2014-11-12 00:10:16,0.09,1.41,0.00,20.69,24.95,27.91,4.91,27.38,1024.43,2040.97,2828.40,2987.16,3168.20,349.73,352.82,20.70,0000 0000 0000 0000 000000
2014-11-12 00:15:17,0.01,1.41,0.00,20.68,24.95,27.90,4.86,27.32,1024.43,2040.95,2827.80,2987.00,3167.99,350.14,353.39,20.73,0000 0000 0000 0000 000000
2014-11-12 00:20:18,0.08,1.41,0.00,20.64,24.95,27.93,4.81,27.38,1024.43,2040.97,2827.03,2986.60,3167.36,349.71,352.82,20.75,0000 0000 0000 0000 000000
2014-11-12 00:25:19,0.04,1.41,0.00,20.63,24.95,27.88,5.05,27.58,1024.43,2040.95,2826.23,2986.02,3166.99,350.74,353.72,20.78,0000 0000 0000 0000 000000
2014-11-12 00:30:20,0.04,1.41,0.00,20.65,24.95,27.90,4.79,27.42,1024.43,2040.96,2825.72,2985.98,3166.35,349.46,352.59,20.81,0000 0000 0000 0000 000000
2014-11-12 00:35:21,0.06,1.42,0.00,20.68,24.95,27.94,4.85,27.38,1024.43,2040.97,2824.98,2985.37,3165.99,349.86,352.90,20.84,0000 0000 0000 0000 000000
2014-11-12 00:40:22,0.05,1.42,0.00,20.65,24.95,27.96,4.89,27.45,1024.43,2040.94,2824.11,2985.01,3165.24,350.20,353.37,20.87,0000 0000 0000 0000 000000
2014-11-12 00:45:23,0.06,1.42,0.00,20.65,24.95,27.93,4.92,27.43,1024.43,2040.93,2823.44,2984.72,3164.97,350.14,353.08,20.90,0000 0000 0000 0000 000000
2014-11-12 00:50:25,0.07,1.42,0.00,20.64,24.95,27.97,4.95,27.35,1024.42,2040.96,2822.76,2984.05,3164.31,350.19,353.34,20.93,0000 0000 0000 0000 000000
2014-11-12 00:55:26,0.01,1.42,0.00,20.62,24.95,27.96,4.91,27.45,1024.39,2040.87,2821.98,2983.97,3163.96,350.00,353.25,20.96,0000 0000 0000 0000 000000
2014-11-12 01:00:27,0.10,1.42,0.00,20.62,24.95,27.96,4.83,27.40,1024.41,2040.91,2821.14,2983.47,3163.35,349.86,352.98,20.99,0000 0000 0000 0000 000000
2014-11-12 01:05:28,0.04,1.43,0.00,20.64,24.95,27.95,4.95,27.43,1024.42,2040.86,2820.43,2983.01,3162.99,350.47,353.43,21.02,0000 0000 0000 0000 000000
2014-11-12 01:10:30,0.05,1.43,0.00,20.65,24.95,27.98,4.89,27.48,1024.43,2040.90,2819.83,2982.86,3162.34,350.26,353.38,21.05,0000 0000 0000 0000 000000
2014-11-12 01:15:31,0.08,1.43,0.00,20.64,24.95,27.94,4.83,27.43,1024.43,2040.95,2819.04,2982.13,3161.98,349.66,352.89,21.08,0000 0000 0000 0000 000000
2014-11-12 01:20:32,0.04,1.43,0.00,20.69,24.95,27.92,4.81,27.33,1024.43,2040.94,2818.47,2981.99,3161.52,350.25,353.40,21.11,0000 0000 0000 0000 000000
2014-11-12 01:25:33,0.04,1.43,0.00,20.78,24.95,27.91,4.90,27.42,1024.41,2040.94,2817.87,2981.69,3160.99,350.06,352.81,21.14,0000 0000 0000 0000 000000
2014-11-12 01:30:34,0.06,1.43,0.00,20.88,24.95,27.83,4.79,27.35,1024.37,2040.88,2816.98,2981.05,3160.46,349.54,352.47,21.17,0000 0000 0000 0000 000000
2014-11-12 01:35:36,0.05,1.44,0.00,20.98,24.95,27.78,4.92,27.38,1024.29,2040.89,2816.09,2980.86,3160.00,349.90,352.52,21.19,0000 0000 0000 0000 000000
2014-11-12 01:40:37,0.07,1.44,0.00,21.05,24.95,27.71,4.88,27.42,1024.38,2040.77,2815.46,2980.09,3159.38,349.96,352.54,21.22,0000 0000 0000 0000 000000
2014-11-12 01:45:38,-0.02,1.44,0.00,21.18,24.95,27.64,4.84,27.29,1024.38,2040.65,2814.77,2979.97,3158.98,350.04,352.77,21.25,0000 0000 0000 0000 000000
2014-11-12 01:50:39,0.08,1.44,0.00,21.28,24.97,27.64,4.86,27.30,1024.43,2040.46,2814.03,2979.25,3158.19,349.59,352.37,21.28,0000 0000 0000 0000 000000
2014-11-12 01:55:40,-0.00,1.44,0.00,21.37,24.97,27.62,4.76,27.33,1024.42,2040.27,2813.27,2979.00,3157.91,349.90,352.41,21.31,0000 0000 0000 0000 000000
2014-11-12 02:00:41,0.08,1.44,0.00,21.45,25.00,27.63,4.85,27.29,1024.43,2040.24,2812.70,2978.52,3157.12,350.09,352.19,21.34,0000 0000 0000 0000 000000
2014-11-12 02:05:43,0.02,1.44,0.00,21.52,25.01,27.63,4.83,27.27,1024.43,2040.06,2812.02,2978.01,3156.59,350.09,352.27,21.37,0000 0000 0000 0000 000000
2014-11-12 02:10:44,0.07,1.44,0.00,21.61,25.04,27.69,4.90,27.27,1024.43,2040.02,2811.27,2977.54,3156.00,350.60,352.49,21.40,0000 0000 0000 0000 000000
2014-11-12 02:15:45,0.07,1.45,0.00,21.68,25.06,27.71,4.82,27.22,1024.43,2040.01,2810.33,2977.01,3155.27,349.98,351.86,21.43,0000 0000 0000 0000 000000
2014-11-12 02:20:46,0.08,1.45,0.00,21.70,25.10,27.75,4.79,27.26,1024.43,2040.00,2809.50,2976.39,3154.75,350.32,352.46,21.46,0000 0000 0000 0000 000000
2014-11-12 02:25:47,0.05,1.45,0.00,21.66,25.13,27.81,4.76,27.23,1024.43,2039.99,2808.61,2975.96,3154.02,349.72,351.69,21.49,0000 0000 0000 0000 000000
2014-11-12 02:30:49,0.08,1.45,0.00,21.61,25.16,27.84,4.87,27.30,1024.43,2039.99,2807.88,2975.24,3153.33,350.34,352.30,21.52,0000 0000 0000 0000 000000
2014-11-12 02:35:50,0.06,1.46,0.00,21.57,25.19,27.86,4.82,27.26,1024.43,2039.97,2807.03,2974.83,3152.76,350.02,352.07,21.55,0000 0000 0000 0000 000000
2014-11-12 02:40:51,0.06,1.46,0.00,21.52,25.22,27.93,4.80,27.29,1024.43,2039.90,2806.10,2974.08,3152.06,349.93,352.01,21.58,0000 0000 0000 0000 000000
2014-11-12 02:45:52,0.03,1.46,0.00,21.51,25.25,27.96,4.83,27.23,1024.43,2039.62,2805.23,2973.77,3151.44,349.88,352.01,21.60,0000 0000 0000 0000 000000
2014-11-12 02:50:54,0.05,1.46,0.00,21.46,25.27,27.99,4.89,27.21,1024.43,2039.52,2804.52,2973.05,3150.97,350.33,352.52,21.63,0000 0000 0000 0000 000000
2014-11-12 02:55:55,0.02,1.46,0.00,21.41,25.30,28.02,4.88,27.37,1024.43,2039.16,2803.70,2972.67,3150.13,350.60,352.82,21.66,0000 0000 0000 0000 000000
2014-11-12 03:00:56,0.05,1.46,0.00,21.38,25.32,28.06,4.87,27.16,1024.43,2039.03,2802.89,2972.02,3149.56,350.06,352.36,21.69,0000 0000 0000 0000 000000
2014-11-12 03:05:57,0.05,1.46,0.00,21.34,25.34,28.10,4.80,27.23,1024.40,2039.00,2802.07,2971.76,3149.00,349.82,352.06,21.72,0000 0000 0000 0000 000000
2014-11-12 03:10:58,0.09,1.47,0.00,21.30,25.35,28.15,4.92,27.29,1024.40,2039.00,2801.24,2971.05,3148.28,350.26,352.67,21.75,0000 0000 0000 0000 000000
2014-11-12 03:15:59,0.05,1.47,0.00,21.27,25.37,28.16,4.83,27.35,1024.42,2039.00,2800.42,2970.77,3147.95,349.98,352.59,21.78,0000 0000 0000 0000 000000
2014-11-12 03:21:01,0.08,1.47,0.00,21.27,25.38,28.24,4.84,27.35,1024.41,2039.00,2799.64,2970.06,3147.15,349.60,351.94,21.81,0000 0000 0000 0000 000000
2014-11-12 03:26:02,0.08,1.47,0.00,21.26,25.40,28.31,4.86,27.35,1024.38,2038.99,2798.77,2969.67,3146.62,349.97,352.44,21.84,0000 0000 0000 0000 000000
2014-11-12 03:31:03,0.04,1.47,0.00,21.21,25.40,28.35,4.82,27.24,1024.40,2038.99,2798.01,2969.04,3146.02,349.89,352.31,21.87,0000 0000 0000 0000 000000
2014-11-12 03:36:04,0.06,1.48,0.00,21.18,25.40,28.37,4.83,27.24,1024.39,2038.97,2797.15,2968.87,3145.56,349.88,352.36,21.90,0000 0000 0000 0000 000000
2014-11-12 03:41:05,0.08,1.48,0.00,21.16,25.41,28.42,4.86,27.33,1024.42,2038.96,2796.25,2968.08,3144.99,350.51,353.05,21.93,0000 0000 0000 0000 000000
2014-11-12 03:46:06,0.05,1.48,0.00,21.15,25.42,28.42,4.95,27.43,1024.43,2038.98,2795.64,2967.90,3144.33,349.88,352.33,21.96,0000 0000 0000 0000 000000
2014-11-12 03:51:08,0.05,1.48,0.00,21.13,25.42,28.42,4.93,27.43,1024.43,2038.90,2794.95,2967.16,3143.98,350.20,352.57,21.99,0000 0000 0000 0000 000000
2014-11-12 03:56:09,0.07,1.48,0.00,21.11,25.42,28.47,4.85,27.35,1024.43,2038.96,2794.14,2966.99,3143.24,349.98,352.44,22.01,0000 0000 0000 0000 000000
2014-11-12 04:01:10,0.08,1.49,0.00,21.08,25.42,28.45,4.90,27.38,1024.43,2038.94,2793.37,2966.44,3142.85,350.26,352.91,22.04,0000 0000 0000 0000 000000
2014-11-12 04:06:11,0.03,1.49,0.00,21.07,25.42,28.50,4.83,27.38,1024.43,2038.86,2792.60,2965.99,3142.06,349.93,352.64,22.07,0000 0000 0000 0000 000000
2014-11-12 04:11:12,0.06,1.49,0.00,21.04,25.42,28.51,4.96,27.48,1024.43,2038.86,2791.94,2965.60,3141.81,349.90,352.62,22.10,0000 0000 0000 0000 000000
2014-11-12 04:16:14,0.06,1.49,0.00,21.03,25.42,28.53,4.92,27.35,1024.43,2038.87,2791.11,2965.04,3141.06,349.79,352.58,22.13,0000 0000 0000 0000 000000
2014-11-12 04:21:15,0.06,1.49,0.00,20.98,25.40,28.52,4.96,27.51,1024.43,2038.87,2790.32,2964.96,3140.79,350.30,352.93,22.16,0000 0000 0000 0000 000000
2014-11-12 04:26:16,0.07,1.49,0.00,20.97,25.40,28.54,4.97,27.49,1024.43,2038.87,2789.68,2964.29,3140.05,350.29,352.72,22.19,0000 0000 0000 0000 000000
2014-11-12 04:31:17,0.04,1.50,0.00,20.94,25.40,28.50,4.90,27.52,1024.43,2038.89,2788.97,2964.00,3139.83,349.89,352.70,22.22,0000 0000 0000 0000 000000
2014-11-12 04:36:18,0.07,1.50,0.00,20.93,25.39,28.52,4.84,27.43,1024.43,2038.97,2788.15,2963.78,3139.10,349.69,352.61,22.25,0000 0000 0000 0000 000000
2014-11-12 04:41:19,0.07,1.50,0.00,20.93,25.37,28.50,4.92,27.41,1024.43,2038.94,2787.30,2963.04,3138.81,350.54,352.97,22.28,0000 0000 0000 0000 000000
2014-11-12 04:46:21,0.03,1.50,0.00,20.90,25.37,28.50,4.96,27.47,1024.43,2038.97,2786.84,2962.98,3138.10,350.44,353.26,22.31,0000 0000 0000 0000 000000
2014-11-12 04:51:22,0.07,1.50,0.00,20.87,25.36,28.51,4.87,27.46,1024.43,2038.98,2786.06,2962.41,3137.90,349.95,352.76,22.34,0000 0000 0000 0000 000000
2014-11-12 04:56:23,0.06,1.51,0.00,20.85,25.35,28.49,4.83,27.48,1024.43,2038.99,2785.39,2962.02,3137.22,350.65,353.64,22.37,0000 0000 0000 0000 000000
2014-11-12 05:01:24,0.04,1.51,0.00,20.83,25.34,28.49,4.88,27.49,1024.43,2038.98,2784.59,2961.90,3136.96,350.26,353.07,22.40,0000 0000 0000 0000 000000
2014-11-12 05:06:25,0.07,1.51,0.00,20.82,25.32,28.45,4.96,27.48,1024.41,2038.99,2783.99,2961.20,3136.29,350.18,353.24,22.42,0000 0000 0000 0000 000000
2014-11-12 05:11:27,0.03,1.51,0.00,20.81,25.32,28.46,4.97,27.54,1024.41,2038.99,2783.26,2961.01,3136.00,350.19,353.27,22.45,0000 0000 0000 0000 000000
2014-11-12 05:16:28,0.07,1.51,0.00,20.79,25.30,28.44,4.89,27.56,1024.27,2038.99,2782.45,2960.80,3135.53,350.33,353.04,22.48,0000 0000 0000 0000 000000
2014-11-12 05:21:30,0.04,1.51,0.00,20.77,25.29,28.43,4.83,27.49,1024.13,2038.99,2781.84,2960.13,3135.01,350.43,353.40,22.51,0000 0000 0000 0000 000000
2014-11-12 05:26:31,0.02,1.51,0.00,20.73,25.27,28.44,4.90,27.57,1024.28,2038.99,2781.04,2960.00,3134.95,350.06,352.98,22.54,0000 0000 0000 0000 000000
2014-11-12 05:31:32,0.06,1.52,0.00,20.75,25.26,28.40,4.88,27.50,1024.30,2039.00,2780.32,2959.83,3134.26,349.85,352.83,22.57,0000 0000 0000 0000 000000
2014-11-12 05:36:33,0.05,1.52,0.00,20.73,25.25,28.39,4.93,27.47,1024.26,2039.01,2779.81,2959.12,3133.99,350.57,353.39,22.60,0000 0000 0000 0000 000000
2014-11-12 05:41:34,0.05,1.52,0.00,20.73,25.24,28.39,4.89,27.56,1024.04,2039.02,2779.03,2958.99,3133.55,350.62,353.49,22.63,0000 0000 0000 0000 000000
2014-11-12 05:46:35,0.07,1.52,0.00,20.71,25.22,28.38,4.95,27.57,1023.96,2039.03,2778.33,2958.64,3133.03,350.79,353.70,22.66,0000 0000 0000 0000 000000
2014-11-12 05:51:36,0.05,1.52,0.00,20.68,25.21,28.36,4.91,27.39,1023.96,2039.04,2777.70,2958.06,3132.71,350.29,353.02,22.69,0000 0000 0000 0000 000000
2014-11-12 05:56:38,0.04,1.52,0.00,20.67,25.20,28.35,4.82,27.34,1023.95,2039.14,2777.01,2958.00,3132.04,349.64,352.58,22.72,0000 0000 0000 0000 000000
2014-11-12 06:01:39,0.09,1.53,0.00,20.65,25.18,28.34,4.87,27.44,1024.00,2039.40,2776.23,2957.79,3131.99,350.26,353.24,22.75,0000 0000 0000 0000 000000
2014-11-12 06:06:40,0.15,1.53,0.00,20.63,25.17,28.33,4.78,27.40,1023.96,2039.81,2775.78,2957.11,3131.40,349.79,352.90,22.78,0000 0000 0000 0000 000000
2014-11-12 06:11:41,0.04,1.53,0.00,20.63,25.16,28.31,4.75,27.40,1023.97,2039.95,2775.00,2957.01,3131.01,350.04,352.99,22.81,0000 0000 0000 0000 000000
2014-11-12 06:16:43,0.09,1.53,0.00,20.60,25.15,28.29,4.78,27.32,1023.99,2039.96,2774.20,2956.61,3130.58,349.61,352.69,22.83,0000 0000 0000 0000 000000
2014-11-12 06:21:44,0.04,1.54,0.00,20.57,25.12,28.27,4.86,27.47,1024.00,2039.94,2773.48,2956.04,3130.02,349.70,353.03,22.86,0000 0000 0000 0000 000000
2014-11-12 06:26:45,0.03,1.54,0.00,20.55,25.12,28.28,4.89,27.52,1024.00,2039.97,2772.91,2956.00,3129.75,350.17,353.48,22.89,0000 0000 0000 0000 000000
2014-11-12 06:31:46,0.08,1.54,0.00,20.55,25.10,28.25,4.84,27.43,1023.97,2039.99,2772.10,2955.57,3129.07,349.59,352.87,22.92,0000 0000 0000 0000 000000
2014-11-12 06:36:47,0.05,1.54,0.00,20.53,25.09,28.23,4.90,27.53,1023.99,2039.99,2771.41,2955.02,3128.82,349.50,352.65,22.95,0000 0000 0000 0000 000000
2014-11-12 06:41:49,0.04,1.54,0.00,20.51,25.07,28.22,4.84,27.41,1024.01,2039.99,2770.76,2954.96,3128.05,349.64,352.78,22.98,0000 0000 0000 0000 000000
2014-11-12 06:46:50,0.06,1.55,0.00,20.48,25.06,28.20,4.85,27.52,1024.04,2039.99,2770.01,2954.25,3127.98,349.96,353.00,23.01,0000 0000 0000 0000 000000
2014-11-12 06:51:51,0.06,1.55,0.00,20.46,25.05,28.21,4.74,27.42,1024.23,2039.99,2769.29,2954.01,3127.45,349.42,352.82,23.04,0000 0000 0000 0000 000000
2014-11-12 06:56:53,0.03,1.55,0.00,20.47,25.02,28.18,4.95,27.48,1024.33,2039.99,2768.69,2953.91,3127.00,350.89,354.11,23.07,0000 0000 0000 0000 000000
2014-11-12 07:01:54,0.07,1.55,0.00,20.45,25.02,28.17,4.95,27.42,1024.35,2040.00,2768.01,2953.22,3126.59,350.64,353.93,23.10,0000 0000 0000 0000 000000
2014-11-12 07:06:55,0.04,1.55,0.00,20.44,25.00,28.17,4.95,27.53,1024.37,2040.02,2767.25,2953.00,3126.03,350.81,354.17,23.13,0000 0000 0000 0000 000000
2014-11-12 07:11:56,0.03,1.55,0.00,20.43,24.99,28.12,4.84,27.43,1024.33,2040.01,2766.66,2952.93,3125.87,349.93,353.41,23.16,0000 0000 0000 0000 000000
2014-11-12 07:16:58,0.08,1.55,0.00,20.41,24.97,28.12,4.94,27.47,1024.30,2040.06,2766.00,2952.23,3125.15,350.18,353.63,23.19,0000 0000 0000 0000 000000
2014-11-12 07:21:59,0.06,1.56,0.00,20.42,24.97,28.11,4.81,27.32,1024.26,2040.21,2765.36,2952.02,3124.99,349.53,352.99,23.22,0000 0000 0000 0000 000000
2014-11-12 07:27:00,0.11,1.56,0.00,20.40,24.95,28.08,4.77,27.43,1024.30,2040.39,2764.69,2951.98,3124.34,349.65,353.10,23.24,0000 0000 0000 0000 000000
2014-11-12 07:32:01,0.08,1.56,0.00,20.40,24.94,28.06,4.79,27.36,1024.37,2040.62,2764.00,2951.30,3124.00,349.49,353.15,23.27,0000 0000 0000 0000 000000
2014-11-12 07:37:02,0.06,1.56,0.00,20.39,24.92,28.03,4.88,27.52,1024.42,2040.79,2763.22,2951.00,3123.67,349.90,353.38,23.30,0000 0000 0000 0000 000000
2014-11-12 07:42:03,0.08,1.57,0.00,20.38,24.91,28.03,4.85,27.58,1024.43,2040.79,2762.36,2950.80,3123.02,349.86,353.56,23.33,0000 0000 0000 0000 000000
2014-11-12 07:47:05,0.06,1.57,0.00,20.38,24.90,28.03,4.89,27.60,1024.41,2040.95,2761.89,2950.11,3122.86,349.96,353.39,23.36,0000 0000 0000 0000 000000
2014-11-12 07:52:06,0.05,1.57,0.00,20.38,24.89,28.00,4.86,27.46,1024.42,2040.95,2761.08,2949.99,3122.08,349.91,353.31,23.39,0000 0000 0000 0000 000000
2014-11-12 07:57:07,0.03,1.57,0.00,20.37,24.87,27.99,4.89,27.57,1024.43,2040.99,2760.63,2949.93,3121.98,350.16,353.70,23.42,0000 0000 0000 0000 000000
2014-11-12 08:02:08,0.09,1.57,0.00,20.36,24.86,27.99,4.93,27.63,1024.43,2040.98,2759.86,2949.15,3121.31,350.40,353.91,23.45,0000 0000 0000 0000 000000
2014-11-12 08:07:09,0.03,1.58,0.00,20.36,24.85,28.00,4.86,27.53,1024.43,2040.99,2759.04,2948.99,3120.99,349.61,353.12,23.48,0000 0000 0000 0000 000000
2014-11-12 08:12:10,0.06,1.58,0.00,20.36,24.84,27.94,4.95,27.61,1024.43,2040.99,2758.35,2948.79,3120.48,350.10,353.61,23.51,0000 0000 0000 0000 000000
2014-11-12 08:17:12,0.07,1.58,0.00,20.35,24.82,27.93,4.83,27.43,1024.43,2040.99,2757.62,2948.06,3120.01,349.87,353.45,23.54,0000 0000 0000 0000 000000
2014-11-12 08:22:13,0.03,1.58,0.00,20.33,24.82,27.92,4.84,27.40,1024.43,2040.99,2756.96,2947.98,3119.67,349.75,353.49,23.57,0000 0000 0000 0000 000000
2014-11-12 08:27:14,0.09,1.58,0.00,20.34,24.81,27.92,4.88,27.57,1024.43,2040.99,2756.14,2947.35,3119.02,349.96,353.43,23.60,0000 0000 0000 0000 000000
2014-11-12 08:32:15,0.05,1.58,0.00,20.35,24.80,27.87,4.96,27.75,1024.43,2040.99,2755.32,2947.00,3118.61,350.03,353.48,23.63,0000 0000 0000 0000 000000
2014-11-12 08:37:17,0.04,1.59,0.00,20.34,24.79,27.88,4.84,27.74,1024.43,2040.99,2754.71,2946.83,3118.04,349.79,353.37,23.65,0000 0000 0000 0000 000000
2014-11-12 08:42:18,0.07,1.59,0.00,20.34,24.77,27.85,4.89,27.66,1024.43,2041.00,2754.00,2946.09,3117.76,350.52,353.82,23.68,0000 0000 0000 0000 000000
2014-11-12 08:47:19,0.05,1.59,0.00,20.33,24.77,27.84,4.92,27.60,1024.43,2041.02,2753.31,2946.00,3117.11,349.84,353.16,23.71,0000 0000 0000 0000 000000
2014-11-12 08:52:20,0.04,1.59,0.00,20.31,24.76,27.84,4.81,27.68,1024.43,2041.04,2752.71,2945.81,3116.98,349.06,352.58,23.74,0000 0000 0000 0000 000000
2014-11-12 08:57:21,0.07,1.59,0.00,20.31,24.75,27.85,4.93,27.69,1024.43,2041.04,2752.02,2945.15,3116.33,349.69,353.41,23.77,0000 0000 0000 0000 000000
2014-11-12 09:02:22,0.04,1.59,0.00,20.32,24.75,27.81,4.86,27.77,1024.43,2041.05,2751.24,2944.99,3115.99,349.79,353.44,23.80,0000 0000 0000 0000 000000
2014-11-12 09:07:24,0.06,1.59,0.00,20.29,24.74,27.84,4.87,27.68,1024.42,2041.11,2750.83,2944.78,3115.59,349.87,353.72,23.83,0000 0000 0000 0000 000000
2014-11-12 09:12:25,0.05,1.60,0.00,20.27,24.72,27.81,4.89,27.62,1024.38,2041.09,2750.02,2944.06,3115.01,350.33,353.67,23.86,0000 0000 0000 0000 000000
2014-11-12 09:17:26,0.06,1.60,0.00,20.26,24.72,27.80,4.92,27.71,1024.40,2041.09,2749.18,2943.98,3114.51,350.16,353.78,23.89,0000 0000 0000 0000 000000
2014-11-12 09:22:28,0.08,1.60,0.00,20.25,24.71,27.81,4.90,27.72,1024.41,2041.13,2748.56,2943.44,3114.01,349.54,353.14,23.92,0000 0000 0000 0000 000000
2014-11-12 09:27:29,0.10,1.60,0.00,20.25,24.70,27.81,4.85,27.57,1024.43,2041.52,2748.00,2943.04,3113.89,349.83,353.48,23.95,0000 0000 0000 0000 000000
2014-11-12 09:32:30,0.06,1.61,0.00,20.23,24.70,27.76,4.88,27.69,1024.42,2041.69,2747.28,2942.99,3113.14,349.88,353.69,23.98,0000 0000 0000 0000 000000
2014-11-12 09:37:31,0.09,1.61,0.00,20.22,24.68,27.76,4.89,27.51,1024.37,2041.79,2746.58,2942.65,3112.93,349.83,353.59,24.01,0000 0000 0000 0000 000000
2014-11-12 09:42:32,0.06,1.61,0.00,20.25,24.67,27.75,4.94,27.73,1024.30,2041.83,2745.97,2942.03,3112.15,349.73,353.41,24.04,0000 0000 0000 0000 000000
2014-11-12 09:47:34,0.03,1.61,0.00,20.25,24.67,27.78,4.90,27.72,1024.16,2041.86,2745.12,2941.97,3111.99,350.27,353.62,24.06,0000 0000 0000 0000 000000
2014-11-12 09:52:35,0.10,1.61,0.00,20.23,24.66,27.75,4.92,27.66,1024.33,2041.94,2744.52,2941.39,3111.38,350.09,353.78,24.09,0000 0000 0000 0000 000000
2014-11-12 09:57:36,0.02,1.62,0.00,20.20,24.65,27.76,4.86,27.55,1024.23,2041.91,2743.87,2941.01,3111.00,349.68,353.34,24.12,0000 0000 0000 0000 000000
2014-11-12 10:02:37,0.05,1.62,0.00,20.19,24.65,27.70,4.88,27.63,1024.17,2041.95,2743.07,2940.92,3110.64,350.05,353.66,24.15,0000 0000 0000 0000 000000
2014-11-12 10:07:38,0.09,1.62,0.00,20.20,24.64,27.70,4.85,27.65,1024.24,2041.98,2742.33,2940.18,3110.03,349.99,353.69,24.18,0000 0000 0000 0000 000000
2014-11-12 10:12:39,0.03,1.62,0.00,20.18,24.62,27.67,4.90,27.64,1024.38,2041.98,2741.75,2940.00,3109.77,350.07,353.57,24.21,0000 0000 0000 0000 000000
2014-11-12 10:17:41,0.04,1.62,0.00,20.18,24.62,27.67,4.87,27.65,1024.41,2041.99,2741.03,2939.93,3109.08,349.67,353.44,24.24,0000 0000 0000 0000 000000
2014-11-12 10:22:42,0.08,1.62,0.00,20.17,24.62,27.64,4.88,27.56,1024.43,2041.99,2740.42,2939.22,3108.82,349.96,353.70,24.27,0000 0000 0000 0000 000000
2014-11-12 10:27:43,0.03,1.63,0.00,20.21,24.61,27.65,4.93,27.64,1024.42,2041.98,2739.82,2938.98,3108.07,350.51,353.94,24.30,0000 0000 0000 0000 000000
2014-11-12 10:32:45,0.05,1.63,0.00,20.21,24.60,27.66,5.01,27.65,1024.42,2041.99,2739.05,2938.71,3107.92,350.45,354.15,24.33,0000 0000 0000 0000 000000
2014-11-12 10:37:46,0.08,1.63,0.00,20.21,24.60,27.63,4.88,27.63,1024.36,2041.99,2738.30,2938.06,3107.28,349.97,353.77,24.36,0000 0000 0000 0000 000000
2014-11-12 10:42:47,0.02,1.63,0.00,20.18,24.60,27.61,4.95,27.59,1024.12,2041.99,2737.69,2937.99,3106.99,350.42,354.12,24.39,0000 0000 0000 0000 000000
2014-11-12 10:47:48,0.06,1.63,0.00,20.19,24.60,27.62,4.91,27.60,1024.03,2041.99,2736.99,2937.72,3106.58,350.35,353.88,24.42,0000 0000 0000 0000 000000
2014-11-12 10:52:49,0.07,1.64,0.00,20.18,24.58,27.61,4.78,27.56,1024.11,2041.99,2736.16,2937.06,3106.02,349.53,353.19,24.45,0000 0000 0000 0000 000000
2014-11-12 10:57:50,0.05,1.64,0.00,20.17,24.57,27.64,4.89,27.58,1024.21,2041.99,2735.54,2936.95,3105.65,350.85,354.30,24.47,0000 0000 0000 0000 000000
2014-11-12 11:02:51,0.07,1.64,0.00,20.18,24.57,27.62,4.92,27.63,1024.04,2041.99,2734.81,2936.24,3105.01,349.96,353.72,24.50,0000 0000 0000 0000 000000
2014-11-12 11:07:53,0.04,1.64,0.00,20.18,24.57,27.62,4.93,27.77,1023.97,2041.99,2734.01,2936.00,3104.70,349.77,353.25,24.53,0000 0000 0000 0000 000000
2014-11-12 11:12:54,0.06,1.64,0.00,20.17,24.57,27.58,4.93,27.68,1023.99,2041.99,2733.17,2935.83,3104.03,350.23,353.73,24.56,0000 0000 0000 0000 000000
2014-11-12 11:17:55,0.08,1.64,0.00,20.18,24.55,27.58,4.90,27.65,1024.02,2041.99,2732.54,2935.12,3103.66,350.31,353.62,24.59,0000 0000 0000 0000 000000
2014-11-12 11:22:56,0.02,1.65,0.00,20.16,24.55,27.60,4.86,27.63,1023.97,2041.99,2731.91,2934.99,3103.04,349.27,352.93,24.62,0000 0000 0000 0000 000000
2014-11-12 11:27:57,0.06,1.65,0.00,20.16,24.55,27.60,4.93,27.68,1023.96,2041.99,2731.07,2934.57,3102.88,350.16,353.75,24.65,0000 0000 0000 0000 000000
2014-11-12 11:32:58,0.07,1.65,0.00,20.12,24.55,27.63,4.89,27.66,1023.96,2042.00,2730.39,2934.04,3102.12,350.09,353.71,24.68,0000 0000 0000 0000 000000
2014-11-12 11:37:59,0.03,1.65,0.00,20.12,24.53,27.62,4.85,27.77,1023.96,2042.00,2729.70,2933.97,3101.89,350.44,354.08,24.71,0000 0000 0000 0000 000000
2014-11-12 11:43:00,0.08,1.65,0.00,20.11,24.52,27.58,4.88,27.86,1023.94,2042.00,2729.01,2933.40,3101.12,349.86,353.45,24.74,0000 0000 0000 0000 000000
2014-11-12 11:48:02,0.04,1.65,0.00,20.10,24.52,27.61,4.87,27.76,1023.94,2042.02,2728.24,2933.02,3100.99,349.88,353.63,24.77,0000 0000 0000 0000 000000
2014-11-12 11:53:03,0.05,1.65,0.00,20.10,24.52,27.60,4.89,27.86,1023.93,2042.01,2727.71,2932.96,3100.39,350.50,354.13,24.80,0000 0000 0000 0000 000000
2014-11-12 11:58:04,0.06,1.66,0.00,20.09,24.50,27.60,4.84,27.76,1023.81,2042.03,2726.97,2932.33,3100.00,350.02,353.66,24.83,0000 0000 0000 0000 000000
2014-11-12 12:03:06,0.05,1.66,0.00,20.12,24.50,27.59,4.87,27.93,1023.80,2042.04,2726.21,2932.01,3099.67,350.06,354.04,24.86,0000 0000 0000 0000 000000
2014-11-12 12:08:07,0.05,1.66,0.00,20.10,24.50,27.58,4.83,27.67,1023.84,2042.02,2725.57,2931.88,3099.03,349.41,353.31,24.88,0000 0000 0000 0000 000000
2014-11-12 12:13:08,0.06,1.66,0.00,20.10,24.49,27.57,4.81,27.75,1023.61,2042.03,2724.91,2931.22,3098.76,349.42,352.99,24.91,0000 0000 0000 0000 000000
2014-11-12 12:18:09,0.05,1.66,0.00,20.08,24.47,27.58,4.92,27.95,1023.62,2042.05,2724.07,2931.00,3098.06,349.75,353.16,24.94,0000 0000 0000 0000 000000
2014-11-12 12:23:10,0.05,1.67,0.00,20.10,24.47,27.55,4.92,27.99,1023.55,2042.08,2723.48,2930.84,3097.93,349.80,353.42,24.97,0000 0000 0000 0000 000000
2014-11-12 12:28:11,0.09,1.67,0.00,20.12,24.47,27.53,4.92,27.88,1023.55,2042.13,2722.78,2930.09,3097.15,350.38,354.10,25.00,0000 0000 0000 0000 000000
2014-11-12 12:33:13,0.08,1.67,0.00,20.11,24.46,27.52,4.90,27.73,1023.62,2042.45,2722.05,2930.00,3096.99,350.56,353.94,25.03,0000 0000 0000 0000 000000
2014-11-12 12:38:14,0.06,1.67,0.00,20.10,24.45,27.51,4.88,27.82,1023.50,2042.36,2721.31,2929.69,3096.35,349.79,353.32,25.06,0000 0000 0000 0000 000000
2014-11-12 12:43:15,0.04,1.67,0.00,20.10,24.45,27.49,4.83,27.79,1023.56,2042.35,2720.82,2929.04,3096.00,349.91,353.32,25.09,0000 0000 0000 0000 000000
2014-11-12 12:48:16,0.05,1.68,0.00,20.10,24.45,27.52,4.88,27.72,1023.66,2042.38,2720.03,2928.99,3095.46,349.76,353.28,25.12,0000 0000 0000 0000 000000
2014-11-12 12:53:18,0.15,1.68,0.00,20.10,24.45,27.48,4.84,27.65,1023.53,2042.85,2719.36,2928.72,3095.01,349.39,353.03,25.15,0000 0000 0000 0000 000000
2014-11-12 12:58:19,0.04,1.68,0.00,20.08,24.44,27.47,4.93,27.89,1023.51,2042.78,2718.76,2928.04,3094.69,350.47,354.07,25.18,0000 0000 0000 0000 000000